Location: Innsbruck
(47.2657°N, 11.3914°E)
Time: 02:22:27
(UTC+02:00)

Envisat - Pass Details

Date: 08 February 2023
Orbit: 763 x 765 km, 98.2° (Epoch: 28 March)

Event Time Altitude Azimuth Distance (km) Brightness Sun altitude
Rises 05:14:43 0° 7° (N) 3,245 6.4 -23.5°
Reaches altitude 10° 05:17:10 10° 359° (N) 2,314 5.5 -23.1°
Enters shadow 05:20:19 31° 330° (NNW) 1,334 4.0 -22.5°
